When you browse on this site, cookies collect data to enhance your experience and personalize the content and advertising you see.
Visit our Privacy Policy to learn more. By continuing to use the site, you agree to this use of cookies and data.
  • en France
  • Liste des pays
  • À 7 jours
  • Température de l'eau
  • Carte satellitaire
  • Carte météo
  • Widgets météo
  • user-avatar
    Se connecter

    Météo par heure à Albena

    Ce jour, 20 Juillet, Samedi

    Heure Température Précipitation Vent Pression Humidité
    00:00 +20°C° 0 mm 1 m/s 748 mmHg 76%
    01:00 +19°C° 0 mm 1 m/s 748 mmHg 76%
    02:00 +19°C° 0 mm 1 m/s 748 mmHg 76%
    03:00 +19°C° 0 mm 1 m/s 748 mmHg 74%
    04:00 +19°C° 0 mm 1 m/s 748 mmHg 72%
    05:00 +19°C° 0 mm 1 m/s 748 mmHg 70%
    06:00 +21°C° 0 mm 1 m/s 749 mmHg 64%
    07:00 +23°C° 0 mm 1 m/s 749 mmHg 57%
    08:00 +26°C° 0 mm 1 m/s 749 mmHg 50%
    09:00 +27°C° 0 mm 2 m/s 749 mmHg 47%
    10:00 +28°C° 0 mm 3 m/s 749 mmHg 44%
    11:00 +29°C° 0 mm 3 m/s 750 mmHg 41%
    12:00 +29°C° 0 mm 4 m/s 749 mmHg 41%
    13:00 +29°C° 0 mm 4 m/s 749 mmHg 40%
    14:00 +30°C° 0 mm 4 m/s 749 mmHg 39%
    15:00 +29°C° 0 mm 4 m/s 749 mmHg 41%
    16:00 +29°C° 0 mm 4 m/s 749 mmHg 43%
    17:00 +28°C° 0 mm 4 m/s 749 mmHg 45%
    18:00 +26°C° 0 mm 3 m/s 749 mmHg 54%
    19:00 +24°C° 0 mm 2 m/s 749 mmHg 63%
    20:00 +21°C° 0 mm 2 m/s 749 mmHg 73%
    21:00 +22°C° 0 mm 1 m/s 749 mmHg 75%
    22:00 +21°C° 0 mm 1 m/s 749 mmHg 77%
    23:00 +18°C° 0 mm 0 m/s 749 mmHg 80%

    Demain, 21 Juillet, Dimanche

    Heure Température Précipitation Vent Pression Humidité
    00:00 +20°C° 0 mm 1 m/s 749 mmHg 79%
    01:00 +20°C° 0 mm 1 m/s 749 mmHg 79%
    02:00 +20°C° 0 mm 1 m/s 749 mmHg 78%
    03:00 +20°C° 0 mm 1 m/s 749 mmHg 76%
    04:00 +19°C° 0 mm 1 m/s 749 mmHg 73%
    05:00 +19°C° 0 mm 1 m/s 749 mmHg 71%
    06:00 +22°C° 0 mm 1 m/s 749 mmHg 62%
    07:00 +24°C° 0 mm 1 m/s 749 mmHg 54%
    08:00 +26°C° 0 mm 1 m/s 749 mmHg 45%
    09:00 +28°C° 0 mm 1 m/s 749 mmHg 42%
    10:00 +29°C° 0 mm 1 m/s 749 mmHg 38%
    11:00 +31°C° 0 mm 2 m/s 750 mmHg 34%
    12:00 +31°C° 0 mm 2 m/s 749 mmHg 33%
    13:00 +33°C° 0 mm 3 m/s 749 mmHg 33%
    14:00 +33°C° 0 mm 3 m/s 749 mmHg 32%
    15:00 +31°C° 0 mm 3 m/s 749 mmHg 33%
    16:00 +30°C° 0 mm 4 m/s 749 mmHg 35%
    17:00 +30°C° 0 mm 4 m/s 749 mmHg 37%
    18:00 +27°C° 0 mm 3 m/s 748 mmHg 46%
    19:00 +25°C° 0 mm 3 m/s 748 mmHg 55%
    20:00 +23°C° 0 mm 2 m/s 748 mmHg 65%
    21:00 +23°C° 0 mm 2 m/s 749 mmHg 66%
    22:00 +21°C° 0 mm 2 m/s 749 mmHg 66%
    23:00 +21°C° 0 mm 2 m/s 749 mmHg 67%

    Après-demain, 22 Juillet, Lundi

    Heure Température Précipitation Vent Pression Humidité
    00:00 +21°C° 0 mm 2 m/s 749 mmHg 63%
    01:00 +22°C° 0 mm 1 m/s 749 mmHg 59%
    02:00 +22°C° 0 mm 1 m/s 748 mmHg 55%
    03:00 +22°C° 0 mm 1 m/s 748 mmHg 53%
    04:00 +22°C° 0 mm 1 m/s 748 mmHg 52%
    05:00 +22°C° 0 mm 1 m/s 748 mmHg 51%
    06:00 +24°C° 0 mm 1 m/s 748 mmHg 46%
    07:00 +26°C° 0 mm 1 m/s 748 mmHg 42%
    08:00 +28°C° 0 mm 1 m/s 748 mmHg 38%
    09:00 +30°C° 0 mm 2 m/s 748 mmHg 36%
    10:00 +32°C° 0 mm 2 m/s 748 mmHg 34%
    11:00 +35°C° 0 mm 2 m/s 748 mmHg 32%
    12:00 +35°C° 0 mm 3 m/s 748 mmHg 32%
    13:00 +34°C° 0 mm 4 m/s 748 mmHg 33%
    14:00 +34°C° 0 mm 4 m/s 747 mmHg 33%
    15:00 +34°C° 0 mm 4 m/s 747 mmHg 34%
    16:00 +33°C° 0 mm 4 m/s 747 mmHg 36%
    17:00 +32°C° 0 mm 4 m/s 746 mmHg 37%
    18:00 +29°C° 0 mm 4 m/s 746 mmHg 44%
    19:00 +27°C° 0 mm 4 m/s 746 mmHg 50%
    20:00 +25°C° 0 mm 3 m/s 746 mmHg 56%
    21:00 +25°C° 0 mm 3 m/s 746 mmHg 57%
    22:00 +24°C° 0 mm 2 m/s 746 mmHg 58%
    23:00 +23°C° 0 mm 2 m/s 746 mmHg 58%

    23 Juillet, Mardi

    Heure Température Précipitation Vent Pression Humidité
    00:00 +23°C° 0 mm 2 m/s 746 mmHg 62%
    01:00 +21°C° 0 mm 2 m/s 746 mmHg 67%
    02:00 +21°C° 0 mm 2 m/s 746 mmHg 71%
    03:00 +21°C° 0 mm 3 m/s 746 mmHg 77%
    04:00 +20°C° 0 mm 3 m/s 746 mmHg 84%
    05:00 +20°C° 0 mm 3 m/s 746 mmHg 91%
    06:00 +21°C° 0 mm 4 m/s 746 mmHg 86%
    07:00 +23°C° 0 mm 5 m/s 746 mmHg 80%
    08:00 +24°C° 0 mm 6 m/s 746 mmHg 74%
    09:00 +24°C° 0.3 mm 6 m/s 746 mmHg 73%
    10:00 +24°C° 0.3 mm 6 m/s 746 mmHg 73%
    11:00 +24°C° 0.3 mm 6 m/s 746 mmHg 72%
    12:00 +23°C° 0.2 mm 6 m/s 746 mmHg 70%
    13:00 +23°C° 0.2 mm 5 m/s 746 mmHg 68%
    14:00 +22°C° 0.2 mm 4 m/s 746 mmHg 67%
    15:00 +22°C° 0 mm 5 m/s 747 mmHg 66%
    16:00 +21°C° 0 mm 5 m/s 747 mmHg 66%
    17:00 +21°C° 0 mm 6 m/s 747 mmHg 66%
    18:00 +20°C° 0 mm 5 m/s 747 mmHg 72%
    19:00 +19°C° 0 mm 4 m/s 747 mmHg 77%
    20:00 +18°C° 0 mm 3 m/s 747 mmHg 83%
    21:00 +18°C° 0 mm 3 m/s 747 mmHg 85%
    22:00 +17°C° 0 mm 3 m/s 747 mmHg 86%
    23:00 +15°C° 0 mm 4 m/s 747 mmHg 88%

    24 Juillet, Mercredi

    Heure Température Précipitation Vent Pression Humidité
    00:00 +15°C° 0 mm 4 m/s 747 mmHg 86%
    01:00 +15°C° 0 mm 4 m/s 747 mmHg 85%
    02:00 +15°C° 0 mm 4 m/s 747 mmHg 83%
    03:00 +15°C° 0 mm 4 m/s 747 mmHg 84%
    04:00 +15°C° 0 mm 5 m/s 747 mmHg 86%
    05:00 +15°C° 0 mm 5 m/s 747 mmHg 87%
    06:00 +17°C° 0 mm 5 m/s 747 mmHg 76%
    07:00 +20°C° 0 mm 5 m/s 747 mmHg 66%
    08:00 +23°C° 0 mm 5 m/s 747 mmHg 55%
    09:00 +25°C° 0 mm 5 m/s 747 mmHg 50%
    10:00 +27°C° 0 mm 5 m/s 747 mmHg 45%
    11:00 +28°C° 0 mm 5 m/s 747 mmHg 40%
    12:00 +29°C° 0 mm 4 m/s 747 mmHg 40%
    13:00 +29°C° 0 mm 4 m/s 747 mmHg 39%
    14:00 +29°C° 0 mm 4 m/s 747 mmHg 38%
    15:00 +29°C° 0 mm 3 m/s 747 mmHg 40%
    16:00 +28°C° 0 mm 3 m/s 746 mmHg 42%
    17:00 +28°C° 0 mm 3 m/s 746 mmHg 45%
    18:00 +26°C° 0 mm 2 m/s 746 mmHg 52%
    19:00 +25°C° 0 mm 2 m/s 746 mmHg 59%
    20:00 +23°C° 0 mm 2 m/s 747 mmHg 67%
    21:00 +23°C° 0 mm 2 m/s 747 mmHg 65%
    22:00 +21°C° 0 mm 2 m/s 747 mmHg 63%
    23:00 +21°C° 0 mm 2 m/s 747 mmHg 62%

    25 Juillet, Jeudi

    Heure Température Précipitation Vent Pression Humidité
    00:00 +20°C° 0 mm 3 m/s 747 mmHg 62%
    01:00 +20°C° 0 mm 3 m/s 747 mmHg 62%
    02:00 +20°C° 0 mm 3 m/s 747 mmHg 63%
    03:00 +20°C° 0 mm 3 m/s 747 mmHg 65%
    04:00 +19°C° 0 mm 3 m/s 747 mmHg 67%
    05:00 +19°C° 0 mm 3 m/s 747 mmHg 69%
    06:00 +21°C° 0 mm 3 m/s 747 mmHg 64%
    07:00 +23°C° 0 mm 4 m/s 748 mmHg 58%
    08:00 +27°C° 0 mm 4 m/s 748 mmHg 52%
    09:00 +28°C° 0 mm 4 m/s 748 mmHg 48%
    10:00 +29°C° 0 mm 4 m/s 748 mmHg 44%
    11:00 +32°C° 0 mm 5 m/s 748 mmHg 39%
    12:00 +30°C° 0 mm 4 m/s 748 mmHg 43%
    13:00 +29°C° 0 mm 4 m/s 748 mmHg 46%
    14:00 +29°C° 0 mm 4 m/s 748 mmHg 49%
    15:00 +29°C° 0 mm 3 m/s 748 mmHg 50%
    16:00 +28°C° 0 mm 3 m/s 747 mmHg 51%
    17:00 +28°C° 0 mm 3 m/s 747 mmHg 52%
    18:00 +26°C° 0 mm 2 m/s 747 mmHg 59%
    19:00 +24°C° 0 mm 2 m/s 747 mmHg 67%
    20:00 +23°C° 0 mm 2 m/s 747 mmHg 74%
    21:00 +22°C° 0 mm 1 m/s 747 mmHg 75%
    22:00 +22°C° 0 mm 1 m/s 747 mmHg 77%
    23:00 +21°C° 0 mm 1 m/s 747 mmHg 78%
    Voir plus